Bloomington, IN

7:48 AM EDT on June 25, 2017 (GMT -0400)
Monroe County

Weather History for KBMG - December, 1998

Change the Weather History Date:

Thursday, December 3, 1998

  Actual Average Record
Temperature  
Mean Temperature 62 °F 36 °F  
Max Temperature 66 °F 44 °F 71 °F (2012)
Min Temperature 57 °F 28 °F 16 °F (2000)
Degree Days  
Heating Degree Days 4 29  
Month to date heating degree days 86  
Since 1 July heating degree days 1142  
Cooling Degree Days 0 0  
Month to date cooling degree days 0  
Year to date cooling degree days 927  
Growing Degree Days 12 (Base 50)    
Moisture  
Dew Point 55 °F    
Average Humidity 79    
Maximum Humidity 90    
Minimum Humidity 72    
Precipitation  
Precipitation 0.00 in 0.11 in 0.14 in (1999)
Month to date precipitation 0.31  
Year to date precipitation 44.32  
Sea Level Pressure  
Sea Level Pressure 29.97 in    
Wind  
Wind Speed 12 mph (SW)    
Max Wind Speed 17 mph    
Max Gust Speed 24 mph    
Visibility 9 miles    
Events      
T = Trace of Precipitation, MM = Missing Value Source: NWS Daily Summary

Daily Weather History Graph

Daily Weather History Graph

Search for Another Location

Airport or City:

Trip Planner

Search our weather history database for the weather conditions in past years. The results will help you decide how hot, cold, wet, or windy it might be!

Date:

Astronomy

Dec. 03, 1998 Rise Set
Actual Time 7:48 AM EST 5:23 PM EST
Civil Twilight 7:18 AM EST 5:53 PM EST
Nautical Twilight 6:45 AM EST 6:26 PM EST
Astronomical Twilight 6:13 AM EST 6:59 PM EST
Moon 5:56 PM EST (12/3) 7:28 AM EST (12/3)
Length of Visible Light 10h 34m
Length of Day
9h 35m
Full, 100% of the Moon is Illuminated
Dec 3
Full
Dec 10
Last Quarter
Dec 18
New
Dec 26
First Quarter
Jan 1
Full

Hourly Weather History & Observations

Time (EST) Temp. Dew Point Humidity Pressure Visibility Wind Dir Wind Speed Gust Speed Precip Events Conditions
12:53 AM 57.0 °F 48.0 °F 72% 29.99 in 10.0 mi WSW 10.4 mph - N/A   Clear
1:53 AM 57.9 °F 48.9 °F 72% 29.97 in 10.0 mi SW 12.7 mph 21.9 mph N/A   Clear
2:53 AM 57.0 °F 48.9 °F 74% 29.98 in 10.0 mi SW 15.0 mph 20.7 mph N/A   Overcast
3:53 AM 57.9 °F 50.0 °F 75% 29.96 in 10.0 mi SW 12.7 mph - N/A   Overcast
4:53 AM 59.0 °F 51.1 °F 75% 29.96 in 10.0 mi WSW 12.7 mph 24.2 mph N/A   Overcast
5:53 AM 59.0 °F 52.0 °F 78% 29.96 in 10.0 mi SW 15.0 mph 20.7 mph N/A   Overcast
6:53 AM 57.9 °F 52.0 °F 81% 29.97 in 10.0 mi WSW 12.7 mph 21.9 mph N/A   Overcast
7:53 AM 57.9 °F 52.0 °F 81% 29.97 in 10.0 mi SW 12.7 mph 21.9 mph N/A   Overcast
8:53 AM 59.0 °F 53.1 °F 81% 29.98 in 10.0 mi SW 12.7 mph - N/A   Overcast
9:53 AM 60.1 °F 54.0 °F 80% 29.98 in 10.0 mi SW 16.1 mph - N/A   Overcast
10:53 AM 61.0 °F 55.0 °F 81% 29.98 in 9.0 mi SW 17.3 mph - N/A   Partly Cloudy
11:53 AM 63.0 °F 55.9 °F 78% 29.97 in 9.0 mi SW 11.5 mph 20.7 mph N/A   Overcast
12:35 PM 62.6 °F 57.2 °F 82% 29.97 in 9.0 mi SW 15.0 mph - N/A   Overcast
12:53 PM 63.0 °F 57.0 °F 81% 29.96 in 8.0 mi SW 11.5 mph - N/A   Overcast
1:53 PM 64.0 °F 57.0 °F 78% 29.95 in 9.0 mi SW 11.5 mph - N/A   Overcast
2:53 PM 66.0 °F 57.9 °F 75% 29.93 in 9.0 mi SW 9.2 mph - N/A   Mostly Cloudy
3:16 PM 66.2 °F 57.2 °F 73% 29.94 in 9.0 mi SW 13.8 mph - N/A   Scattered Clouds
3:53 PM 66.0 °F 57.9 °F 75% 29.93 in 9.0 mi SW 12.7 mph 20.7 mph N/A   Scattered Clouds
4:37 PM 66.2 °F 59.0 °F 78% 29.95 in 9.0 mi SW 8.1 mph - N/A   Mostly Cloudy
4:53 PM 66.0 °F 59.0 °F 78% 29.94 in 9.0 mi SW 10.4 mph - N/A   Overcast
5:22 PM 66.2 °F 57.2 °F 73% 29.96 in 9.0 mi SW 10.4 mph - N/A   Overcast
5:53 PM 64.9 °F 59.0 °F 81% 29.96 in 9.0 mi SSW 9.2 mph - N/A   Overcast
6:53 PM 64.0 °F 59.0 °F 84% 29.97 in 7.0 mi SSW 12.7 mph - N/A   Overcast
7:53 PM 63.0 °F 57.9 °F 84% 29.98 in 8.0 mi SW 12.7 mph - N/A   Overcast
8:53 PM 63.0 °F 57.9 °F 84% 29.99 in 7.0 mi WSW 12.7 mph - N/A   Overcast
9:53 PM 62.1 °F 59.0 °F 90% 29.99 in 7.0 mi SW 12.7 mph - N/A   Overcast
10:19 PM 62.6 °F 57.2 °F 82% 30.00 in 7.0 mi SW 13.8 mph 20.7 mph N/A   Overcast
10:53 PM 62.1 °F 57.9 °F 86% 30.00 in 7.0 mi SW 15.0 mph 21.9 mph N/A   Overcast
11:53 PM 61.0 °F 57.9 °F 90% 30.01 in 7.0 mi SW 12.7 mph - N/A   Overcast